FW5962 Weather Reports


Display with metric or nautical units.
time (UTC)temp
F
wind
direction
speed
MPH
gust
MPH
rain 1hr
in
rain 24hr
in
rain mn
in
humidity
%
barometer
mb
20260505022541 69 0 0.0 0.0 0.00 0.00 0.00 59 1009.3
20260505022042 69 0 0.0 0.0 0.00 0.00 0.00 59 1009.3
20260505021549 70 0 0.0 0.0 0.00 0.00 0.00 59 1009.3
20260505021041 70 0 0.0 0.0 0.00 0.00 0.00 58 1009.2
20260505020541 70 0 0.0 0.0 0.00 0.00 0.00 57 1009.3
20260505020049 71 0 0.0 0.0 0.00 0.00 0.00 57 1009.2
20260505015541 71 0 0.0 0.0 0.00 0.00 0.00 56 1009.3
20260505015045 71 0 0.0 0.0 0.00 0.00 0.00 55 1009.4
20260505014551 72 0 0.0 0.0 0.00 0.00 0.00 55 1009.3
20260505014046 72 0 0.0 0.0 0.00 0.00 0.00 54 1009.4
20260505013541 72 0 0.0 0.0 0.00 0.00 0.00 56 1009.4
20260505013111 72 0 0.0 0.0 0.00 0.00 0.00 55 1009.5
20260505012549 72 0 0.0 0.0 0.00 0.00 0.00 55 1009.5
20260505012045 72 0 0.0 0.0 0.00 0.00 0.00 53 1009.4
20260505011550 73 0 0.0 0.0 0.00 0.00 0.00 54 1009.5
20260505011040 73 0 0.0 0.0 0.00 0.00 0.00 54 1009.5
20260505010541 73 0 0.0 0.0 0.00 0.00 0.00 54 1009.5
20260505010105 73 0 0.0 0.0 0.00 0.00 0.00 57 1009.5
20260505005542 72 0 0.0 0.0 0.00 0.00 0.00 55 1009.7
20260505005041 72 0 0.0 0.0 0.00 0.00 0.00 57 1009.6
20260505004552 72 0 0.0 0.0 0.00 0.00 0.00 56 1009.6
20260505004044 73 0 0.0 0.0 0.00 0.00 0.00 56 1009.5
20260505003544 73 0 0.0 0.0 0.00 0.00 0.00 56 1009.5
20260505003053 74 0 0.0 0.0 0.00 0.00 0.00 56 1009.5
20260505002541 74 0 0.0 0.0 0.00 0.00 0.00 58 1009.4
20260505002041 74 0 0.0 0.0 0.00 0.00 0.00 58 1009.5
20260505001548 75 0 0.0 3.0 0.00 0.00 0.00 57 1009.6
20260505001042 76 0 0.0 6.0 0.00 0.00 0.00 56 1009.5
20260505000541 76 0 0.0 6.0 0.00 0.00 0.00 55 1009.5
20260505000059 77 0 0.0 0.0 0.00 0.00 0.00 53 1009.5
20260504235541 77 0 0.0 0.0 0.00 0.00 0.00 54 1009.4
20260504235041 77 0 0.0 0.0 0.00 0.00 0.00 55 1009.4
20260504234549 76 0 0.0 1.0 0.00 0.00 0.00 55 1009.4
20260504234044 76 0 0.0 1.0 0.00 0.00 0.00 54 1009.4
20260504233543 76 0 0.0 0.0 0.00 0.00 0.00 55 1009.5
20260504233058 76 0 0.0 0.0 0.00 0.00 0.00 56 1009.4
20260504232541 76 0 0.0 0.0 0.00 0.00 0.00 55 1009.4
20260504232043 77 0 0.0 0.0 0.00 0.00 0.00 56 1009.4
20260504231552 77 0 0.0 0.0 0.00 0.00 0.00 55 1009.6
20260504231040 77 0 0.0 0.0 0.00 0.00 0.00 55 1009.5
20260504230641 78 0 0.0 0.0 0.00 0.00 0.00 53 1009.5
20260504230544 78 0 0.0 0.0 0.00 0.00 0.00 53 1009.5
20260504225541 78 0 0.0 0.0 0.00 0.00 0.00 53 1009.6
20260504225046 78 0 0.0 0.0 0.00 0.00 0.00 54 1009.8
20260504224549 78 0 0.0 0.0 0.00 0.00 0.00 55 1009.8
20260504224045 78 0 0.0 2.0 0.00 0.00 0.00 56 1009.8
20260504223544 78 0 0.0 2.0 0.00 0.00 0.00 55 1009.8
20260504223055 78 0 0.0 0.0 0.00 0.00 0.00 55 1009.9
20260504222541 78 0 0.0 0.0 0.00 0.00 0.00 54 1010.1
20260504222040 78 0 0.0 0.0 0.00 0.00 0.00 53 1010.1
20260504221554 78 0 0.0 0.0 0.00 0.00 0.00 54 1010.1
20260504221044 79 0 0.0 0.0 0.00 0.00 0.00 54 1010.1
20260504220541 79 0 0.0 1.0 0.00 0.00 0.00 55 1010.2
20260504220058 78 0 0.0 1.0 0.00 0.00 0.00 55 1010.3
20260504215542 78 0 0.0 1.0 0.00 0.00 0.00 54 1010.3
20260504215041 77 0 0.0 1.0 0.00 0.00 0.00 57 1010.4
20260504214607 77 0 0.0 1.0 0.00 0.00 0.00 58 1010.2
20260504214041 76 0 0.0 0.0 0.00 0.00 0.00 58 1010.3
20260504213541 76 0 0.0 0.0 0.00 0.00 0.00 60 1010.3
20260504213059 76 0 0.0 0.0 0.00 0.00 0.00 58 1010.3
20260504212541 76 0 0.0 0.0 0.00 0.00 0.00 59 1010.4
20260504212040 76 0 0.0 0.0 0.00 0.00 0.00 59 1010.4
20260504211553 75 0 0.0 0.0 0.00 0.00 0.00 60 1010.4
20260504211043 76 0 0.0 0.0 0.00 0.00 0.00 58 1010.4
20260504210541 76 0 0.0 0.0 0.00 0.00 0.00 59 1010.5
20260504210052 76 0 0.0 0.0 0.00 0.00 0.00 60 1010.4
20260504205541 75 0 0.0 0.0 0.00 0.00 0.00 61 1010.4
20260504205041 75 0 0.0 0.0 0.00 0.00 0.00 64 1010.5
20260504204555 75 0 0.0 0.0 0.00 0.00 0.00 62 1010.2
20260504204044 75 0 0.0 0.0 0.00 0.00 0.00 62 1010.3
20260504203540 75 0 0.0 0.0 0.00 0.00 0.00 62 1010.4
20260504203056 75 0 0.0 0.0 0.00 0.00 0.00 60 1010.5
20260504202541 75 0 0.0 0.0 0.00 0.00 0.00 61 1010.5
20260504202042 75 0 0.0 0.0 0.00 0.00 0.00 60 1010.6
20260504201618 75 0 0.0 0.0 0.00 0.00 0.00 61 1010.5
20260504201044 75 0 0.0 0.0 0.00 0.00 0.00 61 1010.6
20260504200541 74 0 0.0 0.0 0.00 0.00 0.00 64 1010.6
20260504200050 74 0 0.0 1.0 0.00 0.00 0.00 62 1010.6
20260504195540 74 0 0.0 1.0 0.00 0.00 0.00 61 1010.5
20260504195041 73 0 0.0 1.0 0.00 0.00 0.00 64 1010.4
20260504194550 73 0 0.0 1.0 0.00 0.00 0.00 61 1010.4
20260504194041 72 0 0.0 1.0 0.00 0.00 0.00 66 1010.6
20260504193542 71 0 0.0 1.0 0.00 0.00 0.00 65 1010.4
20260504193049 70 0 0.0 1.0 0.00 0.00 0.00 66 1010.5
20260504192542 69 0 0.0 1.0 0.00 0.00 0.00 68 1010.4
20260504192040 69 0 0.0 1.0 0.00 0.00 0.00 70 1010.5
20260504191557 68 0 0.0 1.0 0.00 0.00 0.00 72 1010.7
20260504191041 67 0 0.0 0.0 0.00 0.00 0.00 75 1010.7
20260504190541 67 0 0.0 0.0 0.00 0.00 0.00 73 1010.8
20260504190058 66 0 0.0 0.0 0.00 0.00 0.00 74 1010.7
20260504185545 65 0 0.0 0.0 0.00 0.00 0.00 75 1010.8
20260504185041 65 0 0.0 0.0 0.00 0.00 0.00 75 1010.8
20260504184606 65 0 0.0 0.0 0.00 0.00 0.00 77 1010.7
20260504184041 64 0 0.0 0.0 0.00 0.00 0.00 77 1010.7
20260504183541 64 0 0.0 0.0 0.00 0.00 0.00 77 1010.7
20260504183049 63 0 0.0 0.0 0.00 0.00 0.00 78 1010.8
20260504182540 63 0 0.0 0.0 0.00 0.00 0.00 78 1010.8
20260504182040 63 0 0.0 0.0 0.00 0.00 0.00 78 1010.8
20260504181551 62 0 0.0 0.0 0.00 0.00 0.00 79 1010.7
20260504181041 62 0 0.0 0.0 0.00 0.00 0.00 80 1010.7
20260504180541 61 0 0.0 0.0 0.00 0.00 0.00 80 1010.9
20260504180053 61 0 0.0 0.0 0.00 0.00 0.00 81 1010.8
20260504175541 61 0 0.0 0.0 0.00 0.00 0.00 81 1010.8
20260504175041 60 0 0.0 0.0 0.00 0.00 0.00 80 1010.9
20260504174547 60 0 0.0 0.0 0.00 0.00 0.00 81 1010.9
20260504174041 60 0 0.0 0.0 0.00 0.00 0.00 80 1010.9
20260504173541 60 0 0.0 0.0 0.00 0.00 0.00 82 1011.0
20260504173049 60 0 0.0 0.0 0.00 0.00 0.00 82 1010.9
20260504172540 60 0 0.0 0.0 0.00 0.00 0.00 82 1010.9
20260504172041 60 0 0.0 0.0 0.00 0.00 0.00 82 1010.9
20260504171551 60 0 0.0 0.0 0.00 0.00 0.00 82 1010.8
20260504171041 60 0 0.0 0.0 0.00 0.00 0.00 81 1010.8
20260504170544 60 0 0.0 0.0 0.00 0.00 0.00 81 1010.8
20260504151041 55 0 0.0 0.0 0.00 0.00 0.00 88 1010.2
20260504150541 55 0 0.0 0.0 0.00 0.00 0.00 88 1010.2
20260504141044 51 0 0.0 0.0 0.00 0.00 0.00 89 1009.9
20260504140542 51 0 0.0 0.0 0.00 0.00 0.00 89 1009.9
20260504140108 51 0 0.0 0.0 0.00 0.00 0.00 89 1009.9
20260504130540 50 0 0.0 0.0 0.00 0.00 0.00 87 1009.6
20260504120105 50 0 0.0 0.0 0.00 0.00 0.00 84 1009.5
20260504110547 51 0 0.0 0.0 0.00 0.00 0.00 81 1009.7
20260504100541 52 0 0.0 0.0 0.00 0.00 0.00 80 1009.5
20260504081553 54 0 0.0 0.0 0.00 0.00 0.00 77 1009.3
20260504081040 54 0 0.0 0.0 0.00 0.00 0.00 76 1009.2
20260504080542 54 0 0.0 0.0 0.00 0.00 0.00 76 1009.1
20260504050541 61 0 0.0 0.0 0.00 0.00 0.00 67 1009.3
20260504045541 61 0 0.0 0.0 0.00 0.00 0.00 65 1009.4
20260504045041 61 0 0.0 0.0 0.00 0.00 0.00 65 1009.3
20260504044552 61 0 0.0 0.0 0.00 0.00 0.00 66 1009.3
20260504044042 61 0 0.0 0.0 0.00 0.00 0.00 65 1009.2
20260504043541 62 0 0.0 0.0 0.00 0.00 0.00 66 1009.2
20260504043050 62 0 0.0 0.0 0.00 0.00 0.00 64 1009.3
20260504042541 62 0 0.0 0.0 0.00 0.00 0.00 66 1009.2
20260504042040 62 0 0.0 0.0 0.00 0.00 0.00 64 1009.2
20260504041549 63 0 0.0 0.0 0.00 0.00 0.00 64 1009.3
20260504041040 63 0 0.0 0.0 0.00 0.00 0.00 63 1009.2
20260504040541 63 0 0.0 0.0 0.00 0.00 0.00 62 1009.2
20260504040049 64 0 0.0 0.0 0.00 0.00 0.00 62 1009.2
20260504035542 64 0 0.0 0.0 0.00 0.00 0.00 61 1009.2
20260504035042 64 0 0.0 0.0 0.00 0.00 0.00 61 1009.2
20260504034549 65 0 0.0 0.0 0.00 0.00 0.00 60 1009.2
20260504034045 65 0 0.0 0.0 0.00 0.00 0.00 59 1009.1
20260504033541 66 0 0.0 0.0 0.00 0.00 0.00 58 1009.1
20260504033051 67 0 0.0 0.0 0.00 0.00 0.00 57 1009.0
20260504032541 67 0 0.0 0.0 0.00 0.00 0.00 56 1009.1
20260504032041 68 0 0.0 0.0 0.00 0.00 0.00 56 1009.1
20260504031555 68 0 0.0 0.0 0.00 0.00 0.00 56 1009.0
20260504031043 69 0 0.0 1.0 0.00 0.00 0.00 56 1009.0
20260504030540 69 0 0.0 1.0 0.00 0.00 0.00 55 1009.0
20260504030050 69 0 0.0 1.0 0.00 0.00 0.00 53 1009.0
20260504025543 69 0 0.0 0.0 0.00 0.00 0.00 53 1008.8
20260504025046 69 0 0.0 0.0 0.00 0.00 0.00 53 1009.0
20260504024555 69 0 0.0 0.0 0.00 0.00 0.00 54 1008.8
20260504024042 69 0 0.0 0.0 0.00 0.00 0.00 54 1009.0
20260504023545 70 0 0.0 0.0 0.00 0.00 0.00 52 1009.0
20260504023048 70 0 0.0 0.0 0.00 0.00 0.00 52 1009.1